Location: Bluff Heights
(33.7692°N, 118.1592°W)
Time: 10:41:07
(UTC+00:00)

Tiros 1 - Pass Details

Date: 29 July 2021
Orbit: 630 x 663 km, 48.4° (Epoch: 22 September)

Event Time Altitude Azimuth Distance (km) Brightness Sun altitude
Rises 02:06:53 0° 224° (SW) 2,975 11.0 8.7°
Reaches altitude 10° 02:09:14 10° 222° (SW) 2,063 10.1 8.3°
Maximum altitude 02:13:59 72° 139° (SE) 690 7.3 7.3°
Drops below altitude 10° 02:18:42 10° 56° (NE) 2,054 9.4 6.4°
Sets 02:21:02 0° 54° (NE) 2,962 10.2 5.9°
